Wind_Speed
22 25 25 23 22 19 17 15 12 8 8 6 5 6 2 9 12 10 5 2 3 2 1 2 3 2 4 3 2 3 3 2 3 2 4 12 7 2 11 10 15 14 21 23 27
22 23 24 24 23 20 19 16 12 9 8 6 5 2 9 16 15 14 6 2 3 3 6 3 2 3 2 2 2 3 3 6 2 2 2 5 6 13 8 17 9 24 21 24 27
21 23 25 26 24 19 19 17 12 9 7 5 2 5 15 15 8 8 10 9 8 6 5 1 1 2 3 2 2 0 4 3 2 7 10 4 9 7 2 4 16 20 23 24 25
20 21 23 25 25 20 18 15 10 9 8 4 6 12 15 7 3 6 5 6 3 0 2 3 3 3 2 1 2 1 3 4 7 13 10 5 9 6 10 15 18 19 23 27 30
20 21 22 23 23 20 16 13 10 9 7 6 13 17 10 9 6 3 3 4 4 5 6 4 5 3 1 2 4 0 3 7 11 20 20 15 14 8 14 19 16 20 24 21 17
21 22 23 23 21 19 14 11 10 9 8 13 15 9 7 6 7 3 1 3 2 4 2 1 2 2 1 1 1 3 7 13 12 13 12 4 9 4 9 13 16 22 12 9 12
21 22 23 22 19 17 13 10 9 10 13 14 9 9 12 7 7 6 5 8 2 2 2 1 3 2 3 2 4 4 5 6 3 3 5 2 5 7 14 15 19 15 1 2 7
21 22 22 22 18 16 12 8 8 10 12 9 7 6 7 8 6 3 1 3 7 3 0 4 1 2 0 2 4 2 2 4 4 6 5 5 8 7 18 15 21 5 6 3 7
20 20 20 21 18 14 11 6 8 9 9 8 6 5 5 4 1 2 4 3 3 7 5 3 3 3 2 3 4 3 1 3 7 7 4 5 10 10 23 20 16 13 8 3 7
19 20 20 20 17 14 10 2 5 6 6 7 5 4 4 1 2 3 3 3 1 2 2 2 3 3 3 4 1 2 3 4 6 5 7 10 15 11 22 19 19 10 7 1 5
18 19 20 20 16 13 11 3 2 1 7 5 5 8 5 2 2 2 5 2 2 1 2 1 4 3 6 7 4 2 4 6 6 10 5 6 11 16 23 19 11 11 9 2 4
16 17 19 21 14 12 10 3 4 3 4 6 4 5 2 2 2 1 2 1 1 2 1 3 5 7 5 5 3 2 5 7 7 3 7 8 16 20 12 7 11 16 8 2 2
15 15 17 19 13 12 12 9 4 8 4 1 1 1 0 1 0 4 1 1 2 2 1 4 5 2 5 2 3 2 5 4 6 5 4 8 8 6 8 4 6 11 6 3 4
14 15 16 16 8 11 7 8 4 6 4 1 1 1 1 1 2 4 1 1 2 2 5 4 4 3 2 3 1 4 3 3 6 7 3 6 5 8 10 6 3 9 0 4 6
13 14 16 13 7 5 7 4 5 3 3 2 2 2 2 2 1 3 3 2 2 2 4 5 2 2 2 4 2 6 3 5 4 3 3 4 1 7 5 4 6 5 4 2 6
12 13 13 12 4 6 5 2 3 5 3 1 2 1 1 2 2 4 1 2 2 2 3 7 5 3 6 2 1 4 4 5 3 3 2 5 2 5 3 4 3 2 3 6 9
9 12 12 10 2 5 2 1 4 5 2 4 2 3 1 2 2 4 2 1 1 4 4 5 3 3 2 2 3 7 7 4 6 4 5 4 4 7 2 2 6 3 5 8 9
7 10 10 6 3 5 1 4 3 3 4 2 1 1 3 1 1 2 1 2 3 3 2 2 6 1 1 2 1 2 4 4 4 3 5 6 6 5 7 4 6 8 9 11 13
8 10 6 4 3 2 1 3 6 5 2 1 1 2 2 1 3 3 2 3 2 5 6 2 5 4 2 1 5 2 0 2 1 2 2 4 6 8 7 3 6 10 15 12 16
7 9 6 4 1 1 4 4 4 2 3 1 3 2 3 3 0 1 2 3 4 2 3 3 5 1 4 2 1 4 5 2 3 3 5 5 5 9 5 6 8 11 15 19 27
7 3 4 5 1 2 3 5 3 3 2 3 4 2 2 2 4 4 4 3 3 3 6 4 4 5 2 4 5 2 1 3 3 4 4 5 5 6 5 6 6 10 23 21 31
7 1 7 7 2 1 3 5 6 5 3 1 2 3 4 4 3 3 5 5 5 9 5 3 4 3 10 3 4 2 6 5 4 5 3 2 13 11 9 4 16 21 25 29 32
6 5 7 9 3 3 3 1 3 4 4 4 4 4 3 4 1 6 4 2 13 6 6 5 0 3 7 5 4 2 4 4 3 2 11 6 8 2 16 22 26 19 28 31 33
8 3 5 8 3 5 5 4 4 5 3 4 3 3 3 3 4 3 3 2 9 8 10 9 5 7 7 6 4 1 4 6 5 4 19 17 27 23 20 20 19 26 28 30 26
10 6 8 4 5 4 4 6 6 6 4 7 1 7 7 4 3 5 5 3 4 8 5 7 5 6 11 13 9 11 14 14 13 20 14 31 24 25 23 18 20 23 25 26 15
11 6 8 6 7 7 5 7 9 4 7 5 6 7 8 7 9 8 5 2 6 2 5 2 5 2 5 12 15 19 22 20 21 21 17 23 27 23 20 13 15 22 24 21 13
26 14 7 8 5 6 6 8 11 9 9 8 12 5 8 16 15 12 11 9 8 7 5 4 3 3 5 3 8 13 20 18 7 6 8 9 10 2 3 6 8 14 13 8 5
Wind_Direction
10 7 7 7 3 2 1 357 356 347 333 342 321 327 347 99 100 99 77 56 293 299 122 112 109 51 139 126 133 99 64 234 246 64 302 358 20 357 325 315 332 337 326 330 332
9 6 5 4 4 5 4 2 356 355 348 337 339 355 117 120 106 79 51 57 67 132 174 152 8 13 103 22 115 99 143 219 113 121 317 318 339 322 336 334 334 333 339 335 332
9 7 5 2 0 4 2 357 357 358 346 341 355 128 135 133 83 87 87 91 103 98 117 134 26 46 70 47 22 49 207 353 319 342 344 302 318 330 310 305 301 299 321 324 321
9 5 4 3 1 3 5 5 10 18 26 49 111 128 132 137 84 132 77 73 76 57 231 52 34 62 65 359 7 353 290 315 300 314 321 314 302 297 267 264 294 309 314 317 323
9 6 4 4 3 2 7 20 29 27 33 95 123 130 123 94 86 153 68 44 103 98 48 42 37 20 41 348 358 213 306 317 311 301 295 287 264 248 263 288 307 311 323 338 348
7 6 5 4 5 4 9 25 24 40 75 114 123 130 126 83 89 89 49 13 78 72 136 76 72 16 36 339 145 321 292 294 299 284 271 243 272 307 269 318 318 331 348 26 11
5 5 4 4 5 7 9 27 43 73 107 120 110 113 109 100 98 93 75 32 330 217 119 50 287 183 8 351 336 327 331 320 230 281 255 157 285 224 291 311 317 343 30 32 13
1 4 4 3 3 10 13 30 65 100 111 110 101 117 85 119 118 127 35 25 33 50 250 18 97 132 62 331 3 30 42 349 286 350 312 44 273 269 313 313 315 268 245 269 347
357 359 2 2 2 9 14 34 88 106 116 113 79 107 103 122 84 27 187 130 35 45 61 37 64 55 60 62 21 22 259 261 313 301 257 48 278 264 310 317 302 261 244 288 327
351 353 356 0 1 7 10 59 116 91 124 115 77 83 113 120 29 98 80 197 128 346 359 47 40 53 36 67 226 284 304 275 266 277 309 297 270 277 296 306 302 254 234 11 4
348 349 351 354 357 6 16 124 114 76 69 78 88 94 127 104 106 72 39 116 82 67 60 131 55 278 238 204 216 224 247 260 264 281 307 266 286 290 295 294 293 207 208 179 345
345 347 348 347 355 8 20 77 77 117 97 90 110 98 97 107 136 201 39 49 116 289 52 31 239 239 214 185 214 253 278 276 285 257 319 294 291 281 293 259 269 196 194 233 347
339 343 346 347 339 356 22 57 100 137 93 88 124 146 36 352 146 190 150 348 260 294 234 180 241 308 195 215 286 265 245 263 262 312 261 351 302 328 296 296 179 188 213 158 23
334 338 343 352 342 343 5 23 116 144 86 290 234 237 224 319 45 169 168 292 331 283 332 240 279 162 182 241 213 300 220 269 310 357 313 67 285 310 304 334 222 225 159 67 19
328 337 338 350 340 344 338 10 139 142 51 226 204 208 216 249 285 208 217 158 221 269 66 262 277 269 299 232 148 246 325 289 270 262 360 345 80 265 297 343 248 24 118 37 333
323 335 341 339 340 338 346 103 151 45 255 228 169 241 275 214 234 153 214 225 270 311 226 249 272 230 214 145 178 308 341 330 42 107 26 226 90 274 296 319 28 96 215 302 318
312 331 341 341 336 335 353 172 25 117 173 191 219 176 247 225 242 171 190 331 167 16 346 321 287 300 108 74 13 50 42 339 355 5 230 221 322 251 293 141 168 234 290 302 314
305 320 333 336 313 329 332 53 86 219 209 77 128 223 222 66 26 319 277 287 237 121 78 84 331 345 126 152 161 35 133 145 267 266 269 289 246 252 177 261 117 1 328 327 332
287 305 311 289 312 323 81 62 200 214 180 118 13 134 164 155 132 355 210 219 240 165 168 99 263 322 33 57 118 191 206 188 272 269 19 245 288 296 205 354 343 358 353 329 323
258 295 281 208 310 168 85 234 185 159 126 113 175 159 198 208 198 50 236 223 156 100 126 170 327 314 303 349 259 156 158 27 10 328 289 262 245 232 301 325 327 350 322 320 326
223 238 201 179 183 205 159 213 163 154 160 154 204 200 185 215 163 211 232 286 131 104 88 128 129 285 347 193 191 58 204 53 132 160 214 299 245 203 218 291 325 321 308 304 319
198 122 180 179 86 314 188 188 162 162 160 123 116 192 204 192 205 237 232 214 146 147 157 181 149 246 239 288 293 166 216 164 154 260 239 264 277 277 268 267 305 309 303 308 314
197 155 195 192 161 209 278 226 178 136 185 170 211 201 187 212 358 205 221 260 162 153 166 170 210 347 328 2 359 157 197 164 117 78 223 249 260 282 319 318 307 302 303 302 317
185 152 182 192 209 160 161 207 202 198 170 174 194 147 138 231 233 245 235 244 199 186 171 165 187 182 213 207 143 205 246 218 173 221 280 242 277 287 290 294 306 306 303 302 309
212 209 179 179 230 187 139 165 158 186 192 191 285 208 171 193 226 233 227 266 243 220 234 172 235 209 244 260 247 240 244 236 233 251 247 282 278 282 284 296 297 300 309 315 271
192 172 177 176 148 130 192 218 187 172 154 230 212 195 182 183 194 187 175 179 229 3 170 330 261 261 261 243 244 258 257 252 244 247 254 261 272 273 285 304 305 307 313 303 260
213 204 186 169 151 141 199 191 201 147 223 213 210 152 203 231 230 246 254 239 224 170 186 154 161 15 278 348 307 280 251 240 222 228 206 246 261 317 307 301 314 341 347 344 305
Height
1512 1508 1504 1500 1497 1493 1490 1487 1484 1483 1480 1479 1479 1479 1479 1480 1482 1483 1484 1486 1486 1486 1486 1486 1486 1486 1487 1488 1489 1490 1499 1502 1493 1494 1492 1492 1493 1492 1492 1490 1488 1488 1486 1483 1478
1512 1509 1505 1501 1496 1492 1489 1486 1483 1481 1480 1479 1478 1478 1479 1482 1483 1484 1487 1485 1485 1485 1486 1486 1487 1487 1488 1489 1489 1490 1500 1495 1491 1492 1494 1493 1493 1492 1490 1487 1485 1483 1482 1480 1477
1512 1508 1504 1501 1497 1492 1489 1485 1482 1481 1479 1478 1477 1478 1480 1482 1484 1486 1487 1486 1486 1486 1487 1487 1487 1488 1489 1490 1491 1491 1495 1492 1490 1491 1492 1491 1490 1490 1489 1488 1486 1484 1481 1478 1475
1512 1508 1504 1501 1496 1492 1488 1484 1482 1480 1478 1477 1477 1479 1481 1483 1488 1487 1488 1488 1488 1488 1488 1488 1488 1489 1490 1491 1491 1493 1491 1492 1490 1490 1490 1489 1489 1488 1487 1484 1482 1481 1478 1475 1472
1512 1508 1503 1499 1496 1492 1488 1484 1482 1480 1479 1478 1478 1481 1483 1484 1488 1488 1489 1488 1488 1488 1488 1488 1489 1490 1492 1492 1492 1492 1491 1491 1490 1488 1488 1487 1485 1486 1482 1480 1478 1477 1476 1472 1468
1510 1506 1502 1498 1495 1491 1488 1485 1482 1480 1479 1479 1481 1482 1483 1486 1488 1489 1489 1489 1488 1488 1488 1489 1490 1491 1492 1493 1494 1493 1492 1490 1488 1486 1485 1485 1482 1483 1476 1476 1474 1473 1470 1467 1467
1509 1506 1502 1498 1494 1490 1488 1485 1482 1481 1481 1482 1483 1483 1484 1488 1488 1489 1489 1489 1489 1489 1489 1489 1490 1491 1493 1493 1493 1493 1493 1489 1486 1484 1482 1481 1481 1478 1473 1472 1470 1470 1468 1467 1466
1508 1504 1501 1497 1493 1490 1487 1486 1483 1483 1483 1483 1484 1484 1487 1489 1489 1490 1489 1490 1490 1489 1489 1489 1489 1491 1493 1494 1493 1494 1496 1497 1485 1483 1480 1481 1485 1470 1469 1469 1467 1468 1467 1465 1462
1507 1504 1500 1497 1493 1489 1487 1485 1484 1484 1484 1484 1485 1484 1489 1490 1490 1489 1490 1490 1490 1490 1490 1490 1490 1491 1493 1496 1502 1498 1507 1497 1492 1482 1482 1482 1481 1466 1466 1464 1464 1464 1465 1462 1459
1507 1503 1499 1495 1492 1488 1486 1485 1484 1484 1484 1485 1485 1488 1490 1490 1489 1489 1489 1489 1490 1490 1490 1490 1491 1494 1496 1501 1509 1497 1502 1497 1497 1484 1481 1481 1475 1466 1462 1461 1460 1460 1463 1459 1457
1505 1502 1498 1494 1491 1488 1485 1485 1487 1486 1484 1487 1488 1488 1488 1489 1489 1489 1489 1489 1489 1490 1491 1491 1497 1498 1494 1495 1494 1492 1495 1498 1491 1482 1482 1477 1472 1462 1456 1455 1456 1457 1458 1456 1455
1503 1500 1496 1492 1489 1487 1485 1483 1484 1486 1487 1487 1488 1488 1488 1488 1488 1488 1489 1490 1489 1491 1490 1495 1497 1489 1488 1488 1489 1491 1494 1495 1486 1479 1480 1475 1469 1454 1453 1452 1451 1452 1454 1453 1454
1501 1498 1494 1491 1487 1486 1484 1483 1483 1484 1487 1489 1489 1488 1489 1489 1488 1487 1489 1489 1489 1490 1489 1493 1486 1484 1485 1487 1488 1489 1491 1490 1489 1481 1477 1473 1471 1459 1451 1449 1448 1450 1451 1452 1453
1499 1496 1493 1490 1489 1486 1484 1483 1482 1484 1495 1491 1489 1489 1489 1488 1488 1487 1488 1490 1489 1490 1488 1489 1483 1482 1484 1486 1486 1490 1483 1483 1484 1488 1495 1481 1499 1468 1454 1452 1450 1449 1452 1453 1453
1495 1493 1490 1488 1486 1486 1487 1483 1483 1484 1500 1491 1488 1488 1487 1489 1488 1487 1487 1488 1489 1489 1493 1489 1484 1483 1484 1483 1483 1486 1481 1483 1481 1486 1487 1485 1502 1474 1457 1450 1450 1453 1453 1453 1451
1493 1490 1488 1487 1485 1485 1484 1485 1485 1494 1506 1488 1487 1487 1488 1486 1486 1486 1487 1488 1488 1489 1489 1487 1483 1483 1482 1481 1482 1482 1484 1483 1487 1491 1524 1489 1486 1477 1463 1459 1455 1453 1452 1451 1450
1490 1488 1486 1485 1485 1484 1483 1486 1495 1498 1485 1486 1484 1485 1486 1486 1485 1486 1487 1489 1490 1499 1496 1489 1482 1479 1479 1481 1482 1485 1497 1521 1517 1526 1513 1482 1481 1466 1458 1454 1453 1453 1452 1449 1447
1486 1485 1484 1483 1483 1483 1484 1487 1500 1486 1482 1481 1482 1484 1486 1485 1487 1486 1486 1490 1487 1490 1508 1509 1496 1481 1481 1482 1485 1488 1496 1525 1519 1530 1497 1479 1479 1463 1451 1451 1451 1451 1451 1449 1446
1482 1482 1481 1481 1481 1481 1485 1500 1490 1487 1481 1481 1482 1483 1483 1484 1489 1487 1488 1489 1485 1487 1499 1516 1494 1483 1481 1482 1485 1490 1500 1495 1506 1504 1521 1486 1471 1454 1448 1448 1446 1445 1444 1444 1442
1478 1480 1478 1479 1480 1480 1484 1486 1482 1481 1482 1483 1481 1480 1483 1485 1489 1494 1490 1484 1484 1486 1487 1497 1511 1487 1485 1483 1483 1486 1489 1506 1530 1534 1514 1481 1475 1453 1447 1447 1445 1442 1442 1441 1437
1475 1476 1476 1477 1479 1480 1488 1484 1480 1480 1482 1484 1484 1483 1483 1485 1492 1495 1491 1485 1483 1487 1488 1495 1505 1495 1487 1486 1487 1492 1493 1502 1510 1515 1518 1499 1463 1446 1445 1443 1443 1441 1439 1435 1431
1471 1472 1473 1475 1480 1482 1481 1474 1474 1478 1480 1481 1483 1484 1486 1485 1492 1494 1487 1484 1482 1483 1489 1492 1507 1515 1493 1483 1483 1485 1495 1500 1507 1515 1505 1500 1447 1439 1440 1441 1440 1436 1433 1430 1426
1466 1467 1469 1473 1480 1481 1477 1474 1474 1476 1478 1480 1482 1483 1484 1486 1496 1488 1484 1480 1480 1483 1488 1489 1507 1524 1495 1493 1485 1489 1488 1496 1503 1506 1487 1490 1451 1437 1435 1435 1435 1432 1429 1424 1422
1463 1464 1467 1468 1468 1469 1473 1474 1475 1473 1475 1476 1478 1480 1483 1486 1485 1488 1483 1480 1480 1481 1482 1485 1496 1501 1496 1494 1499 1496 1495 1485 1492 1500 1460 1459 1444 1439 1437 1433 1431 1428 1424 1419 1417
1458 1451 1451 1462 1462 1464 1466 1467 1469 1472 1474 1475 1478 1477 1480 1495 1486 1484 1482 1480 1478 1479 1481 1484 1490 1491 1483 1479 1482 1482 1482 1480 1484 1467 1472 1433 1447 1437 1433 1431 1427 1423 1419 1414 1412
1447 1446 1447 1449 1451 1457 1462 1466 1462 1464 1468 1473 1473 1470 1476 1480 1473 1480 1481 1481 1480 1478 1481 1483 1481 1481 1477 1474 1472 1468 1461 1460 1458 1458 1456 1449 1439 1429 1429 1427 1424 1420 1415 1411 1410
1439 1438 1439 1443 1449 1453 1452 1453 1453 1458 1461 1461 1464 1470 1473 1467 1467 1470 1473 1473 1474 1478 1482 1485 1487 1490 1476 1469 1469 1463 1442 1443 1443 1444 1445 1448 1432 1428 1427 1426 1421 1417 1413 1410 1410